Flag for Norway Weather past 2 weeks in Kongsvinger, Norway

Now
39 °F

Passing clouds.


Feels Like: 37 °F
Forecast: 28 / 44 °F
Wind: 3 mph from South

Location: Oslo Gardermoen Airport

Current Time: Apr 1, 2015 at 12:28:15 PM

Latest Report: Apr 1, 2015 at 11:50 AM


Visibility: N/A

Pressure: 29.24 "Hg

Humidity: 45%

Dew point: 19 °F

Location of KongsvingerLocation

Historic Weather in Kongsvinger — Graph

°F

Kongsvinger temperature yesterday

Maximum temperature yesterday: 45 °F (at 3:50 PM)
Minimum temperature yesterday: 21 °F (at 7:20 AM)
Average temperature yesterday: 33 °F

Past Weeks' High & Low Weather Summary

 TemperatureHumidityPressure
High48 °F (Mar 24, 12:20 PM)100% (Mar 18, 10:20 PM)30.72 "Hg (Mar 18, 10:20 PM)
Low21 °F (Mar 28, 6:50 AM)27% (Mar 21, 1:50 PM)28.94 "Hg (Mar 30, 12:20 AM)
Average34 °F80%29.79 "Hg
* Reported Mar 17 10:20 AM — Apr 1 11:20 AM, Kongsvinger, Weather by CustomWeather, © 2015

Note: Actual official high and low records may vary slightly from our data, if they occured in-between our weather recording intervals... More about our weather records

Advertising

Kongsvinger weather history for previous 24 hours

 ConditionsComfort  
Time TempWeatherWind HumidityBarometerVisibility
11:20 AM
Wed, Apr 1
41 °FSunny.3 mph45%29.24 "Hg10 mi
10:50 AM39 °FPassing clouds.3 mph48%29.21 "HgN/A
10:20 AM36 °FPassing clouds.5 mph52%29.21 "HgN/A
9:50 AM34 °FPassing clouds.5 mph56%29.21 "HgN/A
9:20 AM32 °FPassing clouds.5 mph60%29.21 "HgN/A
8:50 AM30 °FPassing clouds.5 mph64%29.18 "HgN/A
8:20 AM28 °FPassing clouds.8 mph69%29.18 "HgN/A
7:50 AM27 °FSunny.5 mph74%29.18 "Hg10 mi
6:50 AM27 °FClear.3 mph69%29.15 "Hg10 mi
6:20 AM27 °FPassing clouds.3 mph69%29.15 "HgN/A
5:50 AM27 °FPassing clouds.3 mph69%29.15 "HgN/A
5:20 AM27 °FClear.2 mph69%29.15 "Hg10 mi
4:50 AM27 °FPassing clouds.5 mph74%29.12 "HgN/A
4:20 AM28 °FPassing clouds.3 mph74%29.12 "HgN/A
3:50 AM28 °FPassing clouds.5 mph74%29.12 "HgN/A
3:20 AM27 °FClear.5 mph74%29.12 "Hg10 mi
2:50 AM28 °FClear.2 mph74%29.12 "Hg10 mi
2:20 AM28 °FClear.2 mph80%29.12 "Hg10 mi
1:50 AM28 °FClear.1 mph80%29.09 "Hg10 mi
1:20 AM30 °FClear.No wind75%29.09 "Hg10 mi
12:50 AM30 °FClear.No wind80%29.09 "Hg10 mi
12:20 AM32 °FClear.2 mph75%29.09 "Hg10 mi
11:50 PM
Tue, Mar 31
32 °FClear.1 mph69%29.09 "Hg10 mi
11:20 PM32 °FClear.2 mph69%29.06 "Hg10 mi
10:50 PM32 °FPassing clouds.5 mph69%29.06 "HgN/A
10:20 PM34 °FPassing clouds.6 mph65%29.06 "HgN/A
9:50 PM34 °FClear.5 mph65%29.06 "Hg10 mi
9:20 PM36 °FClear.5 mph60%29.06 "Hg10 mi
8:50 PM37 °FPassing clouds.6 mph52%29.06 "HgN/A
8:20 PM39 °FSunny.No wind42%29.03 "Hg10 mi
7:50 PM41 °FSunny.No wind39%29.03 "Hg10 mi
7:20 PM41 °FSunny.1 mph39%29.03 "Hg10 mi
6:50 PM43 °FSunny.1 mph36%29.00 "Hg10 mi
6:20 PM41 °FPassing clouds.2 mph42%29.00 "HgN/A
5:50 PM43 °FPassing clouds.5 mph36%29.00 "HgN/A
5:20 PM45 °FPassing clouds.2 mph34%29.00 "HgN/A
4:50 PM43 °FPassing clouds.2 mph39%28.97 "HgN/A
4:20 PM43 °FPassing clouds.3 mph36%28.97 "HgN/A
3:50 PM45 °FPassing clouds.3 mph42%28.97 "HgN/A
3:20 PM41 °FPassing clouds.3 mph53%28.97 "HgN/A
2:50 PM41 °FPassing clouds.7 mph57%28.97 "HgN/A
2:20 PM39 °FPassing clouds.9 mph61%28.97 "HgN/A
1:50 PM39 °FPassing clouds.5 mph61%28.97 "HgN/A
1:20 PM39 °FPassing clouds.3 mph61%28.97 "HgN/A
12:50 PM36 °FSunny.6 mph75%28.97 "Hg10 mi
12:20 PM36 °FPassing clouds.8 mph75%28.97 "HgN/A
Weather by CustomWeather, © 2015

See weather overviewHow to use our weather pages